Location: Krakow
(50.0830°N, 19.9170°E)
Time: 06:47:57
(UTC+02:00)

A-11 Canister half - Pass Details

Date: 21 March 2026
Orbit: 1523 x 1684 km, 47.3° (Epoch: 18 April)

Event Time Altitude Azimuth Distance (km) Brightness Sun altitude
Rises 08:53:13 0° 244° (WSW) 4,901 11.4 27.9°
Reaches altitude 10° 08:56:25 10° 242° (WSW) 3,898 11.0 28.3°
Maximum altitude 09:06:14 67° 163° (SSE) 1,729 10.2 29.5°
Drops below altitude 10° 09:15:44 10° 83° (E) 3,779 11.7 30.7°
Sets 09:18:48 0° 81° (E) 4,744 12.0 31.0°
